This is the latest recevied weather packets stored in our database for station/object VK6WB. If no packets are shown the sender has not sent any weather packets the latest 10 day(s).
| Time | Temp. | Humidity | Pressure | Rain* | Wind** | Luminosity | Snow |
|---|---|---|---|---|---|---|---|
| 1778061004 | 20° C | 46% | 1023.6 hPa | 0 mm | - | 13 W/m² | - |
| 1778060405 | 20.56° C | 44% | 1023.6 hPa | 0 mm | - | 13 W/m² | - |
| 1778059804 | 20.56° C | 43% | 1023.4 hPa | 0 mm | - | 65 W/m² | - |
| 1778059205 | 21.11° C | 43% | 1023.4 hPa | 0 mm | - | 65 W/m² | - |
| 1778058604 | 31.11° C | 42% | 1023.4 hPa | 0 mm | - | 65 W/m² | - |
| 1778058005 | 28.33° C | 39% | 1023.4 hPa | 0 mm | - | 65 W/m² | - |
| 1778057405 | 22.22° C | 39% | 1023.4 hPa | 0 mm | - | 65 W/m² | - |
| 1778056804 | 22.22° C | 39% | 1023.5 hPa | 0 mm | - | 65 W/m² | - |
| 1778056205 | 22.22° C | 39% | 1023.3 hPa | 0 mm | - | 65 W/m² | - |
| 1778055605 | 24.44° C | 39% | 1023.4 hPa | 0 mm | - | 65 W/m² | - |
| 1778055004 | 22.78° C | 39% | 1023.4 hPa | 0 mm | - | 65 W/m² | - |
| 1778054405 | 22.78° C | 38% | 1023.4 hPa | 0 mm | - | 65 W/m² | - |
| 1778053804 | 23.33° C | 38% | 1023.4 hPa | 0 mm | - | 65 W/m² | - |
| 1778053205 | 22.78° C | 38% | 1023.2 hPa | 0 mm | - | 65 W/m² | - |
| 1778052605 | 22.78° C | 39% | 1023.2 hPa | 0 mm | - | 65 W/m² | - |
| 1778052004 | 22.78° C | 38% | 1023.4 hPa | 0 mm | - | 65 W/m² | - |
| 1778051405 | 22.78° C | 38% | 1023.3 hPa | 0 mm | - | 65 W/m² | - |
| 1778050805 | 23.33° C | 37% | 1023.3 hPa | 0 mm | - | 65 W/m² | - |
| 1778050204 | 23.33° C | 37% | 1023.2 hPa | 0 mm | - | 65 W/m² | - |
| 1778049605 | 23.33° C | 38% | 1023.4 hPa | 0 mm | - | 65 W/m² | - |
| 1778049004 | 22.78° C | 38% | 1023.4 hPa | 0 mm | - | 65 W/m² | - |
| 1778048404 | 22.78° C | 38% | 1023.4 hPa | 0 mm | - | 65 W/m² | - |
| 1778047805 | 22.78° C | 38% | 1023.4 hPa | 0 mm | - | 65 W/m² | - |
| 1778047204 | 22.78° C | 38% | 1023.5 hPa | 0 mm | - | 65 W/m² | - |
| 1778046605 | 22.22° C | 37% | 1023.5 hPa | 0 mm | - | 65 W/m² | - |
* Rain latest hour (hover to see other rain measurements)
** Current wind speed in m/s (hover to see current wind gust speed)